Location: Trebic
(49.2170°N, 15.8830°E)
Time: 23:28:09
(UTC+01:00)

Transit 4A - Pass Details

Date: 31 October 2020
Orbit: 862 x 982 km, 66.8° (Epoch: 28 November)

Event Time Altitude Azimuth Distance (km) Brightness Sun altitude
Rises 20:24:22 0° 319° (NW) 3,691 11.8 -37.2°
Reaches altitude 10° 20:27:36 10° 334° (NNW) 2,745 10.8 -37.7°
Enters shadow 20:30:27 19° 358° (N) 2,143 9.9 -38.1°
